Weather in Novoye Adelyakovo

Russia / Samara Oblast     54°28′59″N   51°08′30″E
temp.,
°C
wind,
m/s
gust,
m/s
humid.,
%
clouds,
%
prec.,
mm/h
press.,
hPa
HPBL,
m
5 august, thu
thu501:00+18nw37932 0.6 1012156
04:00+16nnw37966 0.6 1013189
07:00+18nnw47860 0.0 1013269
10:00+25n57455 0.0 10131323
13:00+27nnw7532100 0.0 10132702
16:00+25nnw453396 0.0 10141210
19:00+24nnw784040 0.0 10141111
22:00+17nnw37654 0.0 1015140
6 august, fri
fri601:00+15nnw23714 0.0 101640
04:00+15n226935 0.0 101623
07:00+17nne24561 0.0 1017211
10:00+23n44354 0.0 10171659
13:00+26n44266 0.0 10162115
16:00+27nnw4422100 0.0 10162384
19:00+25n46255 0.0 1016356
22:00+17nne33415 0.0 101731
7 august, sat
sat701:00+16e22465 0.0 101718
04:00+15ese224896 0.0 101816
07:00+19ese23388 0.0 1018146
10:00+25se322610 0.0 10181072
13:00+30ssw12205 0.0 10181981
16:00+30nw22205 0.0 10172340
19:00+28n22255 0.0 101738
22:00+21ese5124048 0.0 1018250
8 august, sun
sun801:00+18se4115058 0.0 1018222
04:00+18se41150100 0.0 1019204
07:00+20sse364379 0.0 1019196
10:00+29ssw452534 0.0 1018814
13:00+33ssw451952 0.0 10172615
16:00+35sw451698 0.0 10163152
19:00+31sw2220100 0.0 101521
22:00+25s1129100 0.0 101611
9 august, mon
mon901:00+24s2230100 0.0 101511
04:00+23sse223599 0.0 101511
07:00+25wsw2532100 0.0 1015177
10:00+30w7102399 0.0 1015953
13:00+34wsw7820100 0.0 10143051
16:00+32s5722100 0.0 1013812
19:00+29se4625100 0.0 101199
22:00+28sse41026100 0.0 1011230